This demonstration page uses our WeatherBlox Daily Observations layout. Learn more.

39.01783, -85.05884

Hourly Observations for July 8, 2020

Temp ( °F °C ) Dew Point ( °F °C ) Humidity (%) Winds ( mph kmh ) Pressure ( in mb ) Visibility ( mi km ) Precip ( " mm )
12:52 am 00:52 Partly Cloudy 77 25 68 20 74 74 SSE 3 6 29.95 1014 10 16.0934 0 0
1:52 am 01:52 Partly Cloudy 77 25 68 20 74 74 Calm 29.95 1014 9 14.48406 0 0
2:52 am 02:52 Mostly Clear 75 23.9 68 20 79 79 S 5 7 29.93 1014 8 12.87472 0 0
3:52 am 03:52 Mostly Clear 74 23.3 68 20 82 82 Calm 29.93 1013 8 12.87472 0 0
4:52 am 04:52 Clear 74 23.3 68 20 82 82 Calm 29.91 1013 8 12.87472 0 0
5:52 am 05:52 Mostly Clear 74 23.3 68 20 82 82 Calm 29.92 1013 7 11.26538 0 0
6:52 am 06:52 Sunny with Mist and Fog 71 21.7 67 19.4 87 87 Calm 29.93 1014 5 8.0467 0 0
7:52 am 07:52 Sunny 77 25 69 20.6 77 77 Calm 29.94 1014 7 11.26538 0 0
8:52 am 08:52 Sunny 80 26.7 69 20.6 69 69 ESE 3 6 29.96 1015 9 14.48406 0 0
9:52 am 09:52 Sunny 83 28.3 70 21.1 65 65 NNE 5 7 29.97 1015 9 14.48406 0 0
10:52 am 10:52 Sunny 85 29.4 69 20.6 59 59 VRB 3 6 29.96 1015 10 16.0934 0 0
11:52 am 11:52 Mostly Sunny 88 31.1 71 21.7 57 57 VRB 3 6 29.96 1015 10 16.0934 0 0
12:52 pm 12:52 Mostly Cloudy 88 31.1 70 21.1 55 55 WNW 3 6 29.95 1014 10 16.0934 0 0
12:59 pm 12:59 Partly Cloudy with Thunderstorms 88 31.1 70 21.1 55 55 ESE 9 15 29.93 1014 10 16.0934 0 0
1:27 pm 13:27 Cloudy with Nearby Thunderstorms 83 28.3 68 20 61 61 S 9 15 29.93 1014 10 16.0934 0 0
1:39 pm 13:39 Mostly Cloudy with Light Rain 83 28.3 68 20 61 61 S 8 13 29.93 1014 10 16.0934 0.001 0.001
1:52 pm 13:52 Mostly Cloudy with Light Rain 83 28.3 69 20.6 63 63 S 7 11 29.94 1014 8 12.87472 0.001 0.001
2:52 pm 14:52 Mostly Cloudy 86 30 72 22.2 63 63 S 3 6 29.92 1013 9 14.48406 0.001 0.001
3:52 pm 15:52 Partly Cloudy 89 31.7 70 21.1 53 53 S 6 9 29.89 1012 10 16.0934 0 0
4:52 pm 16:52 Mostly Sunny 90 32.2 68 20 48 48 S 6 9 29.88 1012 10 16.0934 0 0
5:52 pm 17:52 Partly Cloudy 90 32.2 68 20 48 48 WSW 8 13 29.88 1012 10 16.0934 0 0
6:23 pm 18:23 Partly Cloudy with Thunderstorms 89 31.7 67 19.4 48 48 WSW 5 7 29.84 1011 10 16.0934 0 0
6:52 pm 18:52 Partly Cloudy 89 31.7 68 20 50 50 WSW 9 15 29.86 1011 10 16.0934 0 0
7:52 pm 19:52 Mostly Cloudy 84 28.9 72 22.2 67 67 W 10 17 29.87 1012 10 16.0934 0 0
8:52 pm 20:52 Mostly Cloudy 82 27.8 70 21.1 67 67 WNW 5 7 29.88 1012 10 16.0934 0 0
9:52 pm 21:52 Mostly Cloudy 80 26.7 70 21.1 71 71 Calm 29.89 1012 10 16.0934 0 0
10:52 pm 22:52 Partly Cloudy 78 25.6 70 21.1 76 76 WNW 3 6 29.9 1012 10 16.0934 0 0
11:52 pm 23:52 Partly Cloudy 77 25 70 21.1 79 79 W 5 7 29.9 1013 10 16.0934 0 0

Powered by AerisWeather